Temperature
2 2 2 2 2 2 2 2 2 2 2 2 2 2 2 2 2 2 2 2 2 2 3 2 3 3 2 3 3 2 2 2 2 2 2 2 3 3 3 3 3 3 3
1 1 1 1 1 1 1 1 1 1 1 1 1 1 2 2 2 2 2 2 2 2 2 2 2 2 2 2 2 2 2 2 2 2 2 2 2 2 2 2 2 2 2
1 1 1 1 1 1 1 1 1 1 1 1 1 1 1 1 1 1 1 1 1 1 1 1 1 2 1 1 1 1 1 1 1 1 1 1 1 1 1 2 2 2 1
0 0 0 0 0 0 0 0 0 1 1 1 1 1 1 1 1 1 0 1 1 1 1 1 1 1 1 1 0 1 1 1 1 1 1 1 1 1 1 1 1 1 1
-0 -0 -0 -0 -0 -0 0 0 0 0 0 0 0 0 0 -0 -0 -0 -0 -0 -0 0 0 0 -0 -0 -0 -0 -0 -0 0 0 0 -0 -0 -0 -0 -0 -0 0 0 0 0
-1 -0 -0 -0 -0 -0 -0 -1 -0 -0 -0 -0 -0 -0 -0 -1 -1 -1 -1 -1 -1 -1 -1 -1 -1 -0 -0 -0 -0 -0 -0 -0 -0 -0 -1 -1 -1 -1 -1 -1 -1 -1 -1
-1 -1 -1 -1 -1 -1 -1 -1 -1 -1 -1 -1 -1 -1 -1 -1 -1 -1 -1 -1 -1 -1 -1 -1 -1 -1 -1 -1 -1 -1 -1 -1 -1 -1 -1 -1 -1 -1 -1 -1 -1 -1 -1
-1 -1 -1 -1 -1 -1 -1 -1 -1 -1 -1 -1 -1 -1 -1 -1 -2 -2 -2 -1 -1 -2 -2 -2 -2 -2 -2 -2 -1 -1 -1 -1 -1 -1 -2 -1 -2 -2 -2 -2 -2 -2 -1
-2 -2 -2 -2 -2 -2 -2 -2 -2 -2 -2 -2 -2 -2 -2 -2 -2 -2 -2 -2 -2 -2 -2 -2 -2 -2 -2 -2 -2 -2 -2 -2 -2 -2 -2 -2 -2 -2 -2 -2 -2 -2 -2
-2 -2 -2 -2 -2 -2 -2 -2 -2 -2 -2 -2 -2 -2 -2 -2 -2 -2 -2 -2 -2 -2 -2 -2 -3 -3 -3 -3 -3 -2 -2 -2 -2 -2 -2 -2 -2 -2 -2 -2 -2 -3 -3
-3 -3 -3 -2 -3 -2 -2 -2 -3 -3 -3 -3 -3 -3 -3 -3 -3 -3 -3 -3 -3 -3 -3 -3 -3 -3 -3 -3 -3 -3 -3 -3 -3 -3 -3 -3 -3 -3 -3 -3 -3 -3 -3
-3 -3 -3 -3 -3 -3 -3 -3 -3 -3 -3 -3 -3 -3 -3 -3 -3 -3 -3 -3 -3 -3 -3 -3 -3 -3 -3 -3 -3 -3 -3 -3 -3 -3 -3 -3 -3 -3 -3 -3 -3 -3 -3
-4 -3 -3 -3 -3 -3 -3 -3 -3 -3 -3 -4 -4 -4 -4 -4 -4 -4 -4 -4 -4 -4 -4 -4 -4 -4 -4 -4 -3 -3 -3 -3 -3 -3 -4 -4 -4 -4 -3 -3 -3 -3 -3
-4 -4 -4 -4 -4 -4 -4 -4 -4 -4 -4 -4 -4 -4 -4 -4 -4 -4 -4 -4 -4 -4 -4 -4 -4 -4 -4 -4 -4 -4 -4 -4 -4 -4 -4 -4 -4 -4 -4 -4 -4 -4 -4
-4 -4 -4 -4 -4 -4 -4 -4 -4 -4 -5 -5 -4 -4 -4 -4 -4 -5 -5 -4 -4 -4 -4 -4 -4 -4 -4 -4 -4 -4 -4 -4 -4 -4 -5 -5 -5 -5 -5 -5 -4 -4 -4
-5 -5 -5 -5 -5 -5 -5 -5 -5 -5 -5 -5 -5 -5 -5 -5 -5 -5 -5 -5 -4 -4 -4 -5 -5 -5 -5 -5 -5 -5 -5 -5 -5 -5 -5 -5 -5 -5 -5 -5 -5 -5 -5
-5 -5 -5 -5 -5 -5 -5 -5 -5 -5 -5 -5 -5 -5 -5 -5 -5 -5 -5 -5 -5 -5 -5 -5 -5 -5 -5 -5 -5 -5 -5 -5 -5 -5 -5 -5 -6 -6 -6 -5 -5 -5 -5
-5 -5 -5 -5 -5 -5 -5 -6 -6 -5 -5 -5 -5 -5 -5 -5 -5 -5 -5 -5 -5 -5 -5 -5 -5 -5 -5 -5 -6 -6 -6 -6 -6 -6 -6 -6 -6 -6 -6 -6 -6 -6 -6
-5 -5 -5 -5 -6 -6 -6 -6 -6 -6 -6 -6 -5 -5 -5 -5 -5 -5 -5 -5 -5 -5 -5 -6 -6 -6 -6 -6 -6 -6 -6 -6 -6 -6 -6 -6 -6 -6 -6 -6 -6 -6 -6
-6 -6 -6 -6 -6 -6 -6 -6 -6 -6 -6 -6 -6 -6 -6 -6 -6 -6 -6 -6 -6 -6 -6 -6 -6 -6 -6 -6 -6 -6 -6 -6 -6 -6 -6 -6 -6 -6 -6 -6 -6 -6 -6
-6 -6 -6 -6 -6 -6 -6 -6 -6 -6 -6 -6 -6 -6 -6 -6 -6 -6 -6 -6 -6 -6 -6 -6 -6 -6 -6 -6 -6 -6 -6 -6 -6 -6 -6 -6 -6 -7 -6 -6 -7 -6 -6
-6 -6 -6 -6 -6 -6 -6 -7 -7 -7 -7 -7 -7 -7 -7 -7 -7 -7 -7 -7 -7 -7 -7 -7 -6 -6 -6 -7 -7 -7 -7 -7 -7 -7 -7 -7 -7 -7 -7 -7 -7 -6 -6
-6 -6 -6 -7 -7 -7 -7 -7 -7 -7 -7 -7 -7 -7 -7 -7 -7 -7 -7 -7 -7 -7 -7 -7 -7 -6 -7 -7 -7 -7 -7 -7 -7 -7 -7 -7 -7 -7 -7 -7 -7 -7 -7
-7 -7 -7 -7 -7 -7 -7 -7 -7 -7 -7 -7 -7 -7 -7 -7 -7 -7 -7 -7 -7 -7 -7 -7 -7 -7 -7 -7 -7 -7 -7 -7 -7 -7 -7 -7 -7 -7 -7 -7 -7 -7 -7
-7 -7 -7 -7 -7 -7 -7 -7 -7 -7 -7 -7 -7 -7 -7 -7 -7 -7 -7 -7 -7 -7 -7 -7 -7 -7 -7 -7 -7 -7 -7 -7 -7 -7 -7 -7 -7 -7 -7 -7 -7 -7 -7
-7 -7 -7 -7 -7 -7 -7 -7 -7 -7 -7 -7 -7 -7 -7 -7 -7 -7 -7 -7 -7 -7 -7 -7 -7 -7 -7 -7 -7 -7 -7 -7 -7 -7 -7 -7 -7 -7 -7 -7 -7 -7 -7
Wind_Speed
2 2 2 2 2 2 2 3 3 2 2 3 3 4 4 4 4 4 4 4 4 4 4 4 5 4 3 3 2 3 2 2 5 4 3 3 3 3 4 5 6 6 8
2 2 2 2 2 2 3 3 3 3 3 3 3 3 4 4 4 4 4 5 5 5 5 5 5 4 4 3 3 3 3 2 3 5 4 3 4 3 3 3 4 6 6
2 2 2 2 2 3 3 3 3 3 3 3 3 4 4 4 4 4 4 4 5 5 4 5 4 4 4 3 3 3 3 3 2 3 4 3 3 3 3 3 4 4 6
2 2 2 2 2 2 2 2 2 2 2 2 3 3 3 3 4 4 4 4 4 4 3 4 4 4 4 3 3 3 2 2 2 3 4 3 3 3 2 3 4 3 4
2 2 2 2 2 2 2 2 2 2 2 2 2 3 3 3 3 3 3 3 3 3 3 3 3 3 4 4 3 2 2 2 3 3 4 4 3 2 3 3 4 4 5
2 2 2 2 2 2 2 2 2 2 2 2 2 2 2 2 3 4 3 3 3 3 3 2 2 2 3 5 5 4 4 4 4 4 5 5 5 4 3 3 3 4 5
2 2 2 2 2 2 2 1 1 1 2 2 2 2 2 2 3 4 4 3 2 2 2 2 2 2 3 2 3 4 5 6 6 6 6 6 5 5 4 4 4 5 5
2 2 2 2 2 2 2 1 1 1 1 2 2 2 1 2 3 3 3 2 1 1 2 2 2 2 2 2 2 2 2 4 5 4 4 5 5 4 5 5 4 4 4
2 2 2 2 2 2 1 1 1 1 1 2 2 2 2 3 3 3 3 1 1 1 1 2 2 2 3 3 2 2 2 3 4 5 6 6 6 7 5 2 2 3 5
2 2 2 2 2 1 1 1 1 1 1 1 1 1 2 2 3 3 2 1 1 1 1 2 3 4 4 4 2 2 3 3 2 3 3 4 4 4 5 3 3 3 4
3 2 2 2 2 2 2 2 1 1 1 1 1 1 2 2 2 2 1 1 1 1 2 1 2 4 4 4 3 2 3 3 1 1 2 2 2 2 2 2 2 3 3
3 3 2 2 2 2 2 2 2 1 1 2 2 2 2 2 3 2 2 2 1 1 1 1 2 4 4 4 3 2 3 2 1 1 1 2 2 2 2 2 2 2 3
2 2 2 2 2 2 2 2 2 2 1 2 2 2 2 2 3 4 3 3 3 1 1 2 3 3 3 2 2 2 2 0 0 1 2 2 2 2 2 2 2 2 2
2 2 2 2 2 2 2 2 2 2 2 2 2 2 2 2 2 2 2 2 3 3 2 3 4 3 3 2 2 2 1 0 1 1 2 2 2 1 2 2 2 2 3
2 2 2 2 2 2 2 2 2 2 2 2 1 2 2 2 3 4 3 2 1 1 2 1 1 1 1 1 1 1 1 1 1 1 1 2 2 2 2 2 2 2 2
2 2 2 2 2 2 2 2 4 3 5 5 4 3 3 4 5 5 5 5 5 4 2 1 1 1 1 1 1 1 1 1 1 1 1 2 2 2 2 2 2 2 2
2 2 2 2 2 2 2 2 3 4 5 6 6 6 5 5 5 6 6 6 5 4 2 1 1 1 1 1 1 1 1 2 2 1 2 2 2 2 2 2 2 2 2
2 2 2 1 1 2 2 2 2 3 3 4 5 7 6 6 6 6 5 5 3 3 2 1 2 2 1 1 1 1 1 2 1 2 2 2 2 2 2 2 2 2 3
2 1 1 1 1 1 2 2 2 2 2 3 3 4 7 6 6 6 5 3 2 3 2 2 2 2 2 2 1 1 1 1 2 2 2 2 2 1 2 2 2 3 3
1 2 2 1 1 1 2 2 2 2 2 3 3 4 4 4 3 4 3 3 2 2 3 3 2 2 2 2 2 1 1 2 2 2 2 2 2 2 2 2 2 2 2
1 2 2 2 1 1 1 1 2 2 2 3 3 4 5 3 3 3 3 3 2 2 3 3 2 2 2 2 2 2 2 2 2 2 2 2 2 2 2 2 2 2 2
1 1 1 1 1 1 1 1 1 2 2 3 3 4 6 4 3 3 3 3 3 3 3 3 2 2 2 2 2 2 2 2 2 2 2 2 2 2 2 2 1 2 2
1 1 1 1 1 2 2 1 1 2 2 3 3 3 3 3 3 3 3 3 3 3 3 3 2 2 2 3 3 2 2 2 2 2 2 2 2 2 2 2 2 2 2
1 1 1 1 1 1 1 2 2 2 2 3 3 3 3 3 3 3 3 3 3 3 3 3 2 2 3 3 3 3 3 4 3 2 2 2 2 2 2 2 2 2 2
1 1 1 1 1 1 2 2 2 2 3 3 3 3 3 3 3 3 3 3 4 4 4 4 3 3 3 3 3 4 4 4 4 3 2 1 2 2 1 1 2 2 2
1 1 1 1 1 2 2 2 2 3 3 3 3 3 3 3 3 3 3 3 3 4 4 4 4 4 4 4 4 4 5 4 4 4 2 1 1 1 1 1 1 2 2
Wind_Direction
290 281 282 278 276 275 267 269 269 269 273 255 246 241 239 235 232 227 230 229 229 235 232 231 237 238 245 241 244 244 250 245 262 284 289 297 290 279 291 288 287 285 280
297 295 291 287 278 275 272 276 284 280 283 282 265 248 246 241 231 228 237 237 234 233 231 232 236 235 240 239 238 241 244 250 257 276 286 288 283 274 271 275 292 286 283
307 304 296 292 281 273 278 283 281 278 286 286 278 261 252 242 234 231 234 238 240 239 234 233 232 226 238 240 239 242 247 256 250 259 274 276 280 278 279 284 284 286 290
318 309 300 295 286 279 280 282 286 289 290 287 283 275 265 255 245 237 238 237 246 251 244 238 233 223 229 233 242 241 249 251 250 253 266 271 274 281 274 285 295 292 294
334 336 326 318 315 311 307 302 305 305 298 302 299 285 269 260 253 243 236 240 244 251 247 237 235 234 250 252 256 245 241 244 256 256 266 278 276 288 278 282 288 298 292
342 336 332 327 327 324 309 304 313 314 312 319 309 298 280 273 271 264 257 246 246 246 245 241 239 237 252 265 270 269 261 247 245 251 260 262 265 271 281 281 287 298 287
334 333 338 338 337 324 311 316 309 313 319 325 320 310 292 295 285 268 266 262 246 249 243 242 264 260 271 246 267 279 284 277 264 254 250 255 258 255 262 270 269 277 275
338 342 344 352 351 350 0 348 329 337 337 325 324 321 311 310 299 281 284 283 255 253 244 236 238 248 260 252 250 268 274 282 273 263 248 255 258 253 245 254 264 284 291
345 345 347 349 352 357 360 342 334 343 328 323 335 335 336 324 316 299 300 260 227 249 263 265 253 246 268 280 268 260 278 287 296 293 293 288 285 282 276 263 259 282 288
329 334 342 346 351 344 339 334 332 331 318 319 326 329 322 315 325 322 313 219 220 247 268 271 266 257 270 274 247 240 259 270 289 310 311 309 305 298 290 258 237 260 280
351 0 356 355 352 354 357 350 355 2 355 340 331 332 334 330 338 343 321 238 217 235 246 251 259 267 277 283 280 246 257 281 278 285 296 299 303 296 294 284 257 252 264
3 4 1 1 358 7 13 6 6 2 356 344 344 343 353 351 353 341 334 321 303 241 247 249 261 274 282 288 287 274 292 314 285 281 286 297 303 306 310 309 296 283 275
2 357 356 359 358 3 7 0 360 357 350 338 345 351 356 358 351 356 358 353 341 322 283 294 300 302 310 309 305 312 322 323 258 272 287 297 301 296 316 336 336 338 331
1 356 359 4 0 5 10 15 15 7 359 350 354 352 347 351 351 352 346 340 341 334 331 334 329 326 325 329 333 336 337 273 283 270 291 304 317 326 330 325 317 323 328
356 353 356 360 1 8 16 20 14 15 7 352 347 338 335 329 330 336 336 330 324 308 328 346 342 331 349 6 8 357 356 342 323 296 302 318 322 323 320 320 314 322 314
356 355 357 1 5 8 359 359 6 -0 358 359 354 340 327 329 332 338 341 342 341 337 348 16 353 347 349 344 341 343 350 346 326 316 313 308 314 320 323 328 326 325 317
4 355 2 12 9 5 1 358 347 349 356 356 354 351 347 342 339 338 342 345 346 350 10 16 352 342 337 335 336 342 339 339 335 323 313 311 317 321 327 327 323 324 322
1 0 6 8 2 360 359 355 349 344 344 343 345 351 353 351 349 349 347 351 0 10 14 351 333 328 328 329 331 334 331 334 334 326 324 318 316 321 324 320 316 318 319
358 354 0 3 3 358 350 347 345 341 340 336 340 347 352 351 353 358 359 8 1 355 358 353 342 336 335 329 327 325 322 326 325 325 331 333 324 317 316 314 312 316 322
345 350 358 353 353 356 352 349 346 346 344 343 345 343 342 349 359 0 5 2 356 346 342 336 333 333 332 330 331 333 333 336 335 331 332 332 327 316 310 312 314 314 316
338 335 341 345 342 345 346 346 346 345 341 338 336 338 341 348 349 344 346 346 339 329 324 323 322 327 331 332 335 336 332 330 328 327 329 331 331 327 321 316 315 316 316
343 342 337 330 329 343 351 346 341 335 333 332 329 333 343 348 341 337 334 331 329 325 321 316 314 322 328 328 321 318 317 317 316 319 322 321 319 319 316 315 321 324 324
349 341 338 333 331 332 341 349 343 335 331 329 324 326 335 336 333 331 328 326 324 322 324 323 322 327 339 335 329 315 300 302 304 304 307 314 318 314 311 311 312 316 321
343 335 331 329 333 338 333 330 331 327 324 322 323 325 329 330 329 328 328 328 330 333 335 333 328 326 327 331 330 320 312 307 309 306 292 287 299 306 310 314 316 319 322
345 343 338 331 330 327 325 324 324 323 320 318 321 323 326 327 326 324 323 326 327 331 334 334 331 328 324 323 322 317 312 312 313 314 313 303 294 298 306 321 323 323 327
348 342 338 337 333 326 320 316 315 316 315 314 316 317 319 320 319 321 324 327 328 331 336 339 338 332 325 325 321 319 319 318 317 317 324 329 305 304 316 318 326 328 333
Height
1462 1462 1461 1461 1460 1460 1460 1460 1460 1460 1460 1460 1461 1461 1462 1462 1463 1464 1464 1465 1466 1467 1468 1469 1470 1471 1472 1473 1474 1475 1475 1475 1474 1473 1474 1474 1474 1474 1473 1473 1472 1472 1471
1459 1459 1458 1457 1457 1457 1456 1456 1457 1457 1457 1457 1457 1458 1458 1458 1459 1460 1460 1461 1462 1462 1463 1464 1465 1466 1467 1468 1469 1470 1470 1470 1470 1469 1469 1469 1469 1469 1468 1468 1468 1467 1466
1456 1456 1455 1454 1454 1453 1453 1453 1453 1453 1453 1453 1453 1454 1454 1454 1455 1455 1456 1456 1457 1458 1459 1459 1460 1461 1462 1463 1464 1465 1465 1465 1466 1465 1464 1464 1464 1464 1464 1463 1463 1462 1461
1453 1453 1452 1451 1451 1451 1450 1450 1450 1450 1449 1449 1449 1450 1450 1450 1451 1451 1452 1452 1453 1454 1454 1455 1456 1456 1457 1458 1459 1460 1460 1461 1461 1461 1460 1460 1460 1459 1459 1458 1457 1457 1456
1451 1450 1449 1449 1448 1448 1447 1447 1447 1446 1446 1446 1446 1446 1446 1446 1446 1447 1447 1448 1448 1449 1450 1451 1451 1452 1453 1454 1455 1455 1455 1456 1456 1456 1455 1455 1455 1454 1454 1453 1453 1452 1451
1448 1447 1447 1446 1446 1445 1445 1444 1444 1444 1443 1443 1443 1443 1443 1442 1442 1443 1443 1444 1444 1445 1446 1446 1447 1448 1449 1449 1450 1451 1452 1452 1452 1452 1451 1451 1450 1450 1450 1449 1449 1447 1446
1446 1445 1444 1444 1443 1443 1442 1442 1441 1441 1441 1440 1440 1440 1439 1439 1439 1440 1440 1440 1441 1441 1442 1442 1443 1444 1445 1445 1446 1446 1447 1447 1448 1448 1446 1446 1445 1445 1446 1445 1444 1443 1442
1444 1443 1442 1442 1441 1440 1440 1439 1439 1439 1439 1438 1438 1437 1437 1437 1437 1437 1437 1437 1437 1438 1438 1439 1440 1440 1440 1441 1441 1442 1442 1442 1443 1442 1442 1441 1441 1441 1442 1441 1440 1439 1438
1442 1441 1441 1440 1439 1439 1438 1438 1438 1438 1437 1437 1436 1435 1435 1434 1434 1435 1435 1434 1434 1435 1435 1436 1436 1436 1437 1437 1438 1438 1438 1438 1438 1438 1438 1437 1437 1437 1437 1437 1436 1435 1433
1441 1440 1439 1439 1438 1438 1437 1437 1437 1436 1436 1435 1434 1434 1433 1433 1432 1432 1432 1432 1431 1432 1432 1433 1433 1433 1434 1434 1434 1434 1434 1434 1434 1433 1433 1433 1433 1432 1432 1432 1432 1431 1429
1440 1439 1438 1437 1437 1437 1436 1436 1435 1435 1434 1434 1433 1432 1432 1431 1431 1430 1430 1430 1429 1429 1430 1430 1430 1430 1431 1431 1431 1431 1431 1431 1430 1430 1429 1429 1428 1428 1428 1428 1428 1427 1426
1438 1437 1437 1436 1436 1436 1435 1434 1434 1433 1433 1432 1432 1431 1431 1430 1430 1429 1428 1428 1428 1428 1428 1428 1427 1428 1428 1428 1428 1428 1428 1428 1427 1426 1426 1425 1425 1424 1424 1424 1424 1423 1423
1437 1436 1436 1435 1435 1435 1434 1433 1433 1432 1432 1431 1431 1430 1429 1429 1428 1428 1427 1427 1427 1426 1426 1425 1425 1425 1425 1425 1425 1425 1425 1424 1424 1423 1422 1422 1422 1421 1421 1420 1420 1420 1419
1436 1435 1435 1434 1434 1434 1433 1433 1432 1431 1431 1430 1430 1429 1428 1428 1427 1427 1426 1425 1425 1424 1423 1423 1423 1423 1422 1422 1422 1422 1422 1421 1421 1420 1420 1419 1419 1418 1418 1417 1417 1416 1415
1435 1434 1434 1434 1433 1433 1432 1432 1431 1431 1431 1430 1429 1428 1427 1427 1427 1426 1425 1424 1423 1422 1421 1421 1421 1421 1420 1419 1419 1419 1419 1418 1418 1418 1417 1417 1416 1416 1415 1415 1414 1413 1412
1434 1434 1433 1433 1433 1432 1432 1431 1431 1430 1430 1429 1428 1427 1426 1426 1425 1424 1423 1422 1421 1421 1420 1419 1419 1418 1418 1417 1417 1417 1417 1416 1416 1416 1415 1415 1414 1414 1413 1413 1412 1412 1411
1433 1433 1433 1432 1432 1431 1431 1430 1429 1429 1428 1427 1427 1426 1425 1424 1423 1422 1421 1421 1420 1419 1418 1417 1417 1417 1416 1416 1415 1415 1415 1415 1414 1414 1413 1413 1412 1412 1411 1410 1410 1409 1409
1433 1433 1432 1432 1431 1431 1430 1429 1429 1428 1427 1426 1425 1424 1423 1422 1422 1421 1420 1419 1418 1417 1417 1416 1416 1415 1415 1414 1414 1413 1413 1413 1412 1412 1411 1411 1410 1410 1409 1409 1408 1408 1407
1432 1432 1432 1431 1431 1430 1429 1429 1428 1427 1426 1425 1424 1423 1422 1421 1420 1420 1419 1418 1416 1416 1415 1415 1414 1414 1413 1413 1412 1412 1411 1411 1410 1410 1409 1409 1409 1408 1408 1407 1407 1406 1405
1432 1431 1431 1431 1430 1429 1429 1428 1427 1427 1426 1424 1423 1422 1421 1420 1418 1418 1417 1416 1415 1414 1414 1413 1413 1412 1412 1411 1410 1410 1409 1409 1408 1408 1408 1407 1407 1407 1406 1406 1405 1404 1404
1431 1430 1430 1430 1429 1429 1428 1427 1427 1426 1425 1424 1423 1422 1421 1419 1418 1417 1416 1415 1414 1413 1412 1412 1411 1410 1410 1409 1408 1408 1407 1407 1407 1406 1406 1406 1406 1405 1405 1404 1404 1403 1403
1429 1429 1429 1429 1428 1428 1427 1427 1426 1425 1424 1423 1422 1421 1420 1419 1417 1416 1415 1414 1413 1412 1411 1410 1409 1409 1408 1407 1407 1406 1406 1405 1405 1405 1405 1405 1404 1404 1404 1403 1403 1402 1402
1428 1428 1428 1428 1427 1427 1426 1426 1425 1424 1423 1422 1421 1420 1419 1418 1416 1415 1414 1412 1411 1410 1409 1409 1408 1407 1406 1406 1405 1405 1405 1404 1404 1404 1404 1404 1403 1403 1403 1402 1402 1401 1401
1427 1427 1427 1426 1426 1426 1425 1425 1424 1423 1422 1421 1420 1419 1418 1417 1416 1414 1413 1411 1410 1409 1408 1407 1406 1406 1405 1405 1404 1404 1404 1403 1403 1403 1403 1403 1402 1402 1402 1401 1401 1401 1400
1426 1426 1426 1425 1425 1424 1424 1423 1423 1422 1422 1421 1420 1418 1417 1416 1415 1413 1412 1410 1409 1408 1407 1406 1405 1405 1404 1403 1403 1403 1403 1403 1403 1402 1402 1402 1402 1401 1401 1400 1400 1400 1400
1425 1425 1425 1424 1424 1423 1423 1422 1421 1421 1420 1419 1418 1417 1416 1415 1413 1412 1411 1409 1408 1407 1406 1405 1404 1404 1403 1402 1402 1402 1402 1401 1401 1401 1401 1401 1400 1400 1400 1400 1399 1399 1399